FW4685 Weather Reports


time (UTC)temp
C
wind
direction
speed
KPH
gust
KPH
rain 1hr
cm
rain 24hr
cm
rain mn
cm
humidity
%
barometer
mb
20260904015523 20 208 3.2 19.3 0.00 0.00 0.00 83 1014.6
20260904014516 20 186 3.2 11.3 0.00 0.00 0.00 83 1014.7
20260904013523 20 208 3.2 19.3 0.00 0.00 0.00 83 1014.8
20260904012518 20 178 1.6 8.0 0.00 0.00 0.00 82 1015.0
20260904011529 20 169 1.6 11.3 0.00 0.00 0.00 82 1015.0
20260904010543 20 172 3.2 11.3 0.00 0.00 0.00 83 1015.0
20260904005516 20 177 1.6 8.0 0.00 0.00 0.00 84 1015.3
20260904004528 20 215 1.6 11.3 0.00 0.00 0.00 84 1015.4
20260904003541 20 177 1.6 16.1 0.00 0.00 0.00 84 1015.5
20260904002518 20 152 0.0 3.2 0.00 0.00 0.00 84 1015.6
20260904001528 20 215 1.6 11.3 0.00 0.00 0.00 84 1015.8
20260904000523 20 152 3.2 11.3 0.00 0.00 0.00 84 1016.0
20260903235518 19 195 1.6 11.3 0.00 0.00 0.00 84 1016.2
20260903234516 19 216 1.6 8.0 0.00 0.00 0.00 85 1016.4
20260903233522 19 198 1.6 8.0 0.00 0.00 0.00 85 1016.4
20260903232516 19 207 0.0 8.0 0.00 0.00 0.00 85 1016.6
20260903231520 19 222 0.0 8.0 0.00 0.00 0.00 85 1016.8
20260903230529 20 165 0.0 11.3 0.00 0.00 0.00 85 1016.8
20260903225522 20 205 1.6 16.1 0.00 0.00 0.00 84 1016.8
20260903224517 20 215 1.6 11.3 0.00 0.00 0.00 84 1016.8
20260903223518 20 165 1.6 11.3 0.00 0.00 0.00 85 1016.8
20260903222528 20 210 1.6 8.0 0.00 0.00 0.00 85 1016.8
20260903221521 20 198 1.6 8.0 0.00 0.00 0.00 84 1017.0
20260903220558 20 19 1.6 11.3 0.00 0.00 0.00 83 1017.2
20260903215548 20 185 1.6 8.0 0.00 0.00 0.00 83 1017.6
20260903214543 20 174 0.0 8.0 0.00 0.00 0.00 82 1017.7
20260903213517 20 190 1.6 19.3 0.00 0.00 0.00 83 1017.7
20260903212517 20 232 1.6 11.3 0.00 0.00 0.00 83 1017.6
20260903211528 20 94 1.6 8.0 0.00 0.00 0.00 84 1017.3
20260903210525 20 114 1.6 8.0 0.00 0.00 0.00 84 1017.5
20260903205516 20 245 0.0 8.0 0.00 0.00 0.00 84 1017.5
20260903204549 20 224 1.6 11.3 0.00 0.00 0.00 84 1017.4
20260903203522 20 167 0.0 8.0 0.00 0.00 0.00 84 1017.7
20260903202516 21 96 0.0 8.0 0.00 0.00 0.00 84 1017.5
20260903201548 21 159 1.6 8.0 0.00 0.00 0.00 84 1017.5
20260903200520 21 179 0.0 8.0 0.00 0.00 0.00 83 1017.4
20260903195518 21 207 1.6 11.3 0.00 0.00 0.00 83 1017.4
20260903194530 21 168 1.6 8.0 0.00 0.00 0.00 82 1017.7
20260903193548 21 196 1.6 8.0 0.00 0.00 0.00 81 1017.7
20260903192517 21 182 1.6 11.3 0.00 0.00 0.00 81 1017.8
20260903191528 22 207 1.6 8.0 0.00 0.00 0.00 80 1017.8
20260903190549 22 180 1.6 8.0 0.00 0.00 0.00 79 1017.8
20260903185520 22 192 1.6 8.0 0.00 0.00 0.00 79 1017.6
20260903184556 22 233 1.6 8.0 0.00 0.00 0.00 78 1017.6
20260903183528 23 215 1.6 11.3 0.00 0.00 0.00 77 1017.4
20260903182540 23 164 1.6 8.0 0.00 0.00 0.00 76 1017.3
20260903181516 23 190 1.6 11.3 0.00 0.00 0.00 76 1017.6
20260903180529 23 183 1.6 8.0 0.00 0.00 0.00 75 1017.6
20260903175521 23 173 0.0 8.0 0.00 0.00 0.00 74 1017.6
20260903174536 24 197 3.2 16.1 0.00 0.00 0.00 74 1017.6
20260903173530 25 197 1.6 11.3 0.00 0.00 0.00 73 1017.7
20260903172523 25 180 1.6 11.3 0.00 0.00 0.00 71 1017.6
20260903171538 25 231 1.6 11.3 0.00 0.00 0.00 69 1017.5
20260903170548 25 230 1.6 11.3 0.00 0.00 0.00 68 1017.6
20260903165520 26 187 1.6 8.0 0.00 0.00 0.00 67 1017.6
20260903164516 26 150 0.0 8.0 0.00 0.00 0.00 66 1017.6
20260903163520 26 181 1.6 11.3 0.00 0.00 0.00 66 1017.6
20260903162027 26 194 1.6 16.1 0.00 0.00 0.00 62 1017.6
20260903161024 26 148 1.6 11.3 0.00 0.00 0.00 64 1017.8
20260903160028 27 200 1.6 8.0 0.00 0.00 0.00 65 1017.8
20260903155022 27 204 3.2 11.3 0.00 0.00 0.00 64 1018.0
20260903154029 28 194 1.6 11.3 0.00 0.00 0.00 61 1018.0
20260903153023 28 236 1.6 11.3 0.00 0.00 0.00 61 1018.1
20260903152029 28 167 0.0 8.0 0.00 0.00 0.00 60 1018.0
20260903151023 27 168 1.6 11.3 0.00 0.00 0.00 58 1018.2
20260903150036 27 147 1.6 16.1 0.00 0.00 0.00 60 1018.0
20260903145028 26 105 1.6 8.0 0.00 0.00 0.00 59 1018.3
20260903144022 27 243 1.6 11.3 0.00 0.00 0.00 59 1018.3
20260903143016 27 162 1.6 8.0 0.00 0.00 0.00 59 1018.3
20260903142028 27 315 3.2 16.1 0.00 0.00 0.00 57 1018.3
20260903141020 27 188 1.6 8.0 0.00 0.00 0.00 57 1018.4
20260903140036 27 226 1.6 8.0 0.00 0.00 0.00 54 1018.5
20260903135028 27 167 1.6 11.3 0.00 0.00 0.00 55 1018.6
20260903134023 27 128 1.6 8.0 0.00 0.00 0.00 54 1018.8
20260903133029 27 104 1.6 8.0 0.00 0.00 0.00 56 1018.8
20260903132028 27 222 3.2 11.3 0.00 0.00 0.00 56 1019.0
20260903131018 26 19 1.6 19.3 0.00 0.00 0.00 58 1018.9
20260903130029 26 123 1.6 11.3 0.00 0.00 0.00 58 1018.9
20260903125021 26 14 1.6 8.0 0.00 0.00 0.00 60 1019.0
20260903124019 26 239 1.6 11.3 0.00 0.00 0.00 61 1019.3
20260903123027 26 136 1.6 11.3 0.00 0.00 0.00 60 1019.2
20260903122022 26 253 1.6 8.0 0.00 0.00 0.00 60 1019.2
20260903121016 26 9 1.6 8.0 0.00 0.00 0.00 59 1019.1
20260903120027 26 225 1.6 8.0 0.00 0.00 0.00 60 1019.1
20260903115019 25 143 1.6 8.0 0.00 0.00 0.00 61 1019.0
20260903114016 25 292 1.6 11.3 0.00 0.00 0.00 62 1019.1
20260903113030 25 287 0.0 8.0 0.00 0.00 0.00 63 1019.2
20260903112021 25 156 1.6 8.0 0.00 0.00 0.00 64 1019.3
20260903110528 25 347 1.6 11.3 0.00 0.00 0.00 63 1019.3
20260903105520 24 167 1.6 11.3 0.00 0.00 0.00 64 1019.4
20260903104515 23 245 1.6 8.0 0.00 0.00 0.00 66 1019.5
20260903103527 23 193 0.0 8.0 0.00 0.00 0.00 70 1019.7
20260903102520 23 273 1.6 8.0 0.00 0.03 0.00 69 1019.6
20260903101015 23 267 1.6 11.3 0.00 0.15 0.00 68 1019.5
20260903100028 22 132 1.6 8.0 0.00 0.15 0.00 68 1019.5
20260903095023 22 297 0.0 11.3 0.00 0.18 0.00 72 1019.5
20260903094037 21 349 1.6 11.3 0.00 0.18 0.00 74 1019.7
20260903093027 21 249 1.6 16.1 0.00 0.18 0.00 75 1019.8
20260903092020 21 304 1.6 16.1 0.00 0.18 0.00 76 1019.8
20260903091019 21 304 1.6 11.3 0.00 0.18 0.00 77 1019.9
20260903090016 21 315 1.6 11.3 0.00 0.18 0.00 77 1019.8
20260903085027 21 258 1.6 11.3 0.00 0.18 0.00 78 1019.6
20260903084020 21 5 1.6 11.3 0.00 0.18 0.00 78 1019.6
20260903083029 21 3 1.6 8.0 0.00 0.18 0.00 79 1019.4
20260903082022 20 195 1.6 8.0 0.00 0.18 0.00 79 1019.0
20260903081036 20 332 1.6 24.1 0.00 0.18 0.00 80 1019.0
20260903080027 20 170 1.6 11.3 0.00 0.18 0.00 81 1018.8
20260903075021 20 83 0.0 8.0 0.00 0.18 0.00 82 1018.5
20260903074016 20 338 1.6 8.0 0.00 0.18 0.00 83 1018.5
20260903073020 20 352 1.6 8.0 0.00 0.18 0.00 84 1018.4
20260903072017 19 182 1.6 8.0 0.00 0.18 0.00 84 1018.1
20260903071047 19 201 1.6 11.3 0.00 0.18 0.00 85 1017.9
20260903070022 19 238 0.0 3.2 0.00 0.18 0.00 85 1018.3
20260903065017 19 244 1.6 11.3 0.00 0.18 0.00 85 1018.5
20260903064027 19 83 1.6 11.3 0.00 0.18 0.00 86 1018.3
20260903063041 18 168 1.6 8.0 0.00 0.18 0.00 86 1018.5
20260903062030 18 81 0.0 3.2 0.00 0.18 0.00 87 1018.5
20260903061027 18 203 0.0 8.0 0.00 0.18 0.00 87 1018.4
20260903060100 18 252 0.0 11.3 0.00 0.18 0.00 88 1018.2
20260903055031 18 161 0.0 3.2 0.00 0.18 0.00 89 1018.3
20260903054028 18 143 0.0 8.0 0.00 0.18 0.00 89 1018.2
20260903053020 18 151 0.0 8.0 0.00 0.18 0.00 89 1018.1
20260903052015 18 183 0.0 3.2 0.00 0.18 0.00 89 1017.9
20260903051027 18 181 0.0 3.2 0.00 0.18 0.00 89 1017.9
20260903050023 18 138 0.0 3.2 0.00 0.18 0.00 89 1018.0
20260903045015 18 286 0.0 16.1 0.00 0.18 0.00 89 1018.0
20260903044107 18 183 0.0 3.2 0.00 0.18 0.00 89 1017.8
20260903043017 18 250 0.0 8.0 0.00 0.18 0.00 89 1017.9
20260903042027 18 185 0.0 3.2 0.00 0.18 0.00 89 1017.8
20260903041022 18 163 1.6 8.0 0.00 0.18 0.00 89 1018.0
20260903040048 18 220 1.6 11.3 0.00 0.18 0.00 89 1017.9
20260903035021 18 100 0.0 3.2 0.00 0.18 0.00 88 1018.0
20260903034015 18 266 0.0 8.0 0.00 0.18 0.00 88 1018.1
20260903033031 18 62 0.0 3.2 0.00 0.18 0.00 88 1017.9
20260903032020 18 226 0.0 3.2 0.00 0.18 0.00 88 1017.8
20260903031036 18 177 0.0 8.0 0.00 0.18 0.00 88 1018.0
20260903030051 18 159 1.6 11.3 0.00 0.18 0.00 88 1017.8
20260903025020 18 187 1.6 8.0 0.00 0.18 0.00 88 1018.0
20260903024016 18 196 0.0 8.0 0.00 0.18 0.00 88 1018.1
20260903023029 18 214 0.0 8.0 0.00 0.18 0.00 88 1018.0
20260903022041 18 213 0.0 3.2 0.00 0.18 0.00 88 1017.8
20260903021036 18 176 1.6 8.0 0.00 0.18 0.00 88 1017.9